owner,sensor,date,latitude,longitude,vertical_datum,sea_water_practical_salinity,qcFlag 
ENP,ioos.station.NOAA.NDBC:LMDF1:1,2016-09-01T00:00:00Z,25.1760,-80.6330,1.5,20.99,1111122 
ENP,ioos.station.NOAA.NDBC:LMDF1:1,2016-09-01T01:00:00Z,25.1760,-80.6330,1.5,20.66,1111122 
ENP,ioos.station.NOAA.NDBC:LMDF1:1,2016-09-01T02:00:00Z,25.1760,-80.6330,1.5,19.73,1111122 
ENP,ioos.station.NOAA.NDBC:LMDF1:1,2016-09-01T04:00:00Z,25.1760,-80.6330,1.5,20.19,1111122 
ENP,ioos.station.NOAA.NDBC:LMDF1:1,2016-09-01T05:00:00Z,25.1760,-80.6330,1.5,20.12,1111122 
ENP,ioos.station.NOAA.NDBC:LMDF1:1,2016-09-01T07:00:00Z,25.1760,-80.6330,1.5,20.72,1111122 
ENP,ioos.station.NOAA.NDBC:LMDF1:1,2016-09-01T08:00:00Z,25.1760,-80.6330,1.5,20.5,1111122 
ENP,ioos.station.NOAA.NDBC:LMDF1:1,2016-09-01T09:00:00Z,25.1760,-80.6330,1.5,21.56,1111122 
ENP,ioos.station.NOAA.NDBC:LMDF1:1,2016-09-01T11:00:00Z,25.1760,-80.6330,1.5,20.44,1111122 
ENP,ioos.station.NOAA.NDBC:LMDF1:1,2016-09-01T12:00:00Z,25.1760,-80.6330,1.5,20.12,1111122 
ENP,ioos.station.NOAA.NDBC:LMDF1:1,2016-09-01T13:00:00Z,25.1760,-80.6330,1.5,20.32,1111122 
ENP,ioos.station.NOAA.NDBC:LMDF1:1,2016-09-01T20:00:00Z,25.1760,-80.6330,1.5,21.14,1111122 
ENP,ioos.station.NOAA.NDBC:LMDF1:1,2016-09-02T12:00:00Z,25.1760,-80.6330,1.5,20.15,1111122 
ENP,ioos.station.NOAA.NDBC:LMDF1:1,2016-09-02T13:00:00Z,25.1760,-80.6330,1.5,19.96,1111122 
ENP,ioos.station.NOAA.NDBC:LMDF1:1,2016-09-02T14:00:00Z,25.1760,-80.6330,1.5,20.03,1111122 
ENP,ioos.station.NOAA.NDBC:LMDF1:1,2016-09-02T15:00:00Z,25.1760,-80.6330,1.5,20.22,1111122 
ENP,ioos.station.NOAA.NDBC:LMDF1:1,2016-09-02T16:00:00Z,25.1760,-80.6330,1.5,20.22,1111122 
ENP,ioos.station.NOAA.NDBC:LMDF1:1,2016-09-02T17:00:00Z,25.1760,-80.6330,1.5,20.37,1111122 
ENP,ioos.station.NOAA.NDBC:LMDF1:1,2016-09-02T18:00:00Z,25.1760,-80.6330,1.5,20.74,1111122 
ENP,ioos.station.NOAA.NDBC:LMDF1:1,2016-09-02T19:00:00Z,25.1760,-80.6330,1.5,21.33,1111122 
ENP,ioos.station.NOAA.NDBC:LMDF1:1,2016-09-02T20:00:00Z,25.1760,-80.6330,1.5,21.51,1111122 
ENP,ioos.station.NOAA.NDBC:LMDF1:1,2016-09-02T21:00:00Z,25.1760,-80.6330,1.5,21.08,1111122 
ENP,ioos.station.NOAA.NDBC:LMDF1:1,2016-09-02T22:00:00Z,25.1760,-80.6330,1.5,21.21,1111122 
ENP,ioos.station.NOAA.NDBC:LMDF1:1,2016-09-02T23:00:00Z,25.1760,-80.6330,1.5,21.03,1111122 
ENP,ioos.station.NOAA.NDBC:LMDF1:1,2016-09-03T00:00:00Z,25.1760,-80.6330,1.5,21.1,1111122 
ENP,ioos.station.NOAA.NDBC:LMDF1:1,2016-09-03T01:00:00Z,25.1760,-80.6330,1.5,21.19,1111122 
ENP,ioos.station.NOAA.NDBC:LMDF1:1,2016-09-03T02:00:00Z,25.1760,-80.6330,1.5,21.23,1111122 
ENP,ioos.station.NOAA.NDBC:LMDF1:1,2016-09-03T04:00:00Z,25.1760,-80.6330,1.5,20.91,1111122 
ENP,ioos.station.NOAA.NDBC:LMDF1:1,2016-09-03T05:00:00Z,25.1760,-80.6330,1.5,21.53,1111122 
ENP,ioos.station.NOAA.NDBC:LMDF1:1,2016-09-03T07:00:00Z,25.1760,-80.6330,1.5,18.55,1111122 
ENP,ioos.station.NOAA.NDBC:LMDF1:1,2016-09-03T08:00:00Z,25.1760,-80.6330,1.5,19.5,1111122 
ENP,ioos.station.NOAA.NDBC:LMDF1:1,2016-09-03T09:00:00Z,25.1760,-80.6330,1.5,20.72,1111122 
ENP,ioos.station.NOAA.NDBC:LMDF1:1,2016-09-03T11:00:00Z,25.1760,-80.6330,1.5,18.64,1111122 
ENP,ioos.station.NOAA.NDBC:LMDF1:1,2016-09-03T12:00:00Z,25.1760,-80.6330,1.5,18.09,1111122 
ENP,ioos.station.NOAA.NDBC:LMDF1:1,2016-09-03T13:00:00Z,25.1760,-80.6330,1.5,17.92,1111122 
ENP,ioos.station.NOAA.NDBC:LMDF1:1,2016-09-03T14:00:00Z,25.1760,-80.6330,1.5,17.88,1111122 
ENP,ioos.station.NOAA.NDBC:LMDF1:1,2016-09-03T15:00:00Z,25.1760,-80.6330,1.5,17.77,1111122 
ENP,ioos.station.NOAA.NDBC:LMDF1:1,2016-09-03T16:00:00Z,25.1760,-80.6330,1.5,17.71,1111122 
ENP,ioos.station.NOAA.NDBC:LMDF1:1,2016-09-03T17:00:00Z,25.1760,-80.6330,1.5,17.81,1111122 
ENP,ioos.station.NOAA.NDBC:LMDF1:1,2016-09-03T18:00:00Z,25.1760,-80.6330,1.5,17.82,1111122 
ENP,ioos.station.NOAA.NDBC:LMDF1:1,2016-09-03T19:00:00Z,25.1760,-80.6330,1.5,17.82,1111122 
ENP,ioos.station.NOAA.NDBC:LMDF1:1,2016-09-03T20:00:00Z,25.1760,-80.6330,1.5,18.4,1111122 
ENP,ioos.station.NOAA.NDBC:LMDF1:1,2016-09-03T21:00:00Z,25.1760,-80.6330,1.5,19.83,1111122 
ENP,ioos.station.NOAA.NDBC:LMDF1:1,2016-09-03T22:00:00Z,25.1760,-80.6330,1.5,19.77,1111122 
ENP,ioos.station.NOAA.NDBC:LMDF1:1,2016-09-03T23:00:00Z,25.1760,-80.6330,1.5,20.09,1111122 
ENP,ioos.station.NOAA.NDBC:LMDF1:1,2016-09-04T00:00:00Z,25.1760,-80.6330,1.5,20.6,1111122 
ENP,ioos.station.NOAA.NDBC:LMDF1:1,2016-09-04T01:00:00Z,25.1760,-80.6330,1.5,20.96,1111122 
ENP,ioos.station.NOAA.NDBC:LMDF1:1,2016-09-04T02:00:00Z,25.1760,-80.6330,1.5,21.27,1111122 
ENP,ioos.station.NOAA.NDBC:LMDF1:1,2016-09-04T04:00:00Z,25.1760,-80.6330,1.5,21.83,1111122 
ENP,ioos.station.NOAA.NDBC:LMDF1:1,2016-09-04T05:00:00Z,25.1760,-80.6330,1.5,22.2,1111122 
ENP,ioos.station.NOAA.NDBC:LMDF1:1,2016-09-04T07:00:00Z,25.1760,-80.6330,1.5,22.81,1111122 
ENP,ioos.station.NOAA.NDBC:LMDF1:1,2016-09-04T08:00:00Z,25.1760,-80.6330,1.5,23.09,1111122 
ENP,ioos.station.NOAA.NDBC:LMDF1:1,2016-09-04T09:00:00Z,25.1760,-80.6330,1.5,23.37,1111122 
ENP,ioos.station.NOAA.NDBC:LMDF1:1,2016-09-04T10:00:00Z,25.1760,-80.6330,1.5,23.59,1111122 
ENP,ioos.station.NOAA.NDBC:LMDF1:1,2016-09-04T12:00:00Z,25.1760,-80.6330,1.5,23.8,1111122 
ENP,ioos.station.NOAA.NDBC:LMDF1:1,2016-09-04T13:00:00Z,25.1760,-80.6330,1.5,23.98,1111122 
ENP,ioos.station.NOAA.NDBC:LMDF1:1,2016-09-04T14:00:00Z,25.1760,-80.6330,1.5,24.26,1111122 
ENP,ioos.station.NOAA.NDBC:LMDF1:1,2016-09-04T15:00:00Z,25.1760,-80.6330,1.5,24.35,1111122 
ENP,ioos.station.NOAA.NDBC:LMDF1:1,2016-09-04T16:00:00Z,25.1760,-80.6330,1.5,24.32,1111122 
ENP,ioos.station.NOAA.NDBC:LMDF1:1,2016-09-04T17:00:00Z,25.1760,-80.6330,1.5,24.04,1111122 
ENP,ioos.station.NOAA.NDBC:LMDF1:1,2016-09-04T18:00:00Z,25.1760,-80.6330,1.5,24.14,1111122 
ENP,ioos.station.NOAA.NDBC:LMDF1:1,2016-09-04T19:00:00Z,25.1760,-80.6330,1.5,23.95,1111122 
ENP,ioos.station.NOAA.NDBC:LMDF1:1,2016-09-04T20:00:00Z,25.1760,-80.6330,1.5,23.99,1111122 
ENP,ioos.station.NOAA.NDBC:LMDF1:1,2016-09-04T21:00:00Z,25.1760,-80.6330,1.5,23.85,1111122 
ENP,ioos.station.NOAA.NDBC:LMDF1:1,2016-09-04T22:00:00Z,25.1760,-80.6330,1.5,21.01,1111122 
ENP,ioos.station.NOAA.NDBC:LMDF1:1,2016-09-04T23:00:00Z,25.1760,-80.6330,1.5,22.68,1111122 
ENP,ioos.station.NOAA.NDBC:LMDF1:1,2016-09-05T00:00:00Z,25.1760,-80.6330,1.5,23.34,1111122 
ENP,ioos.station.NOAA.NDBC:LMDF1:1,2016-09-05T01:00:00Z,25.1760,-80.6330,1.5,23.51,1111122 
ENP,ioos.station.NOAA.NDBC:LMDF1:1,2016-09-05T02:00:00Z,25.1760,-80.6330,1.5,23.31,1111122 
ENP,ioos.station.NOAA.NDBC:LMDF1:1,2016-09-05T04:00:00Z,25.1760,-80.6330,1.5,23.64,1111122 
ENP,ioos.station.NOAA.NDBC:LMDF1:1,2016-09-05T05:00:00Z,25.1760,-80.6330,1.5,23.76,1111122 
ENP,ioos.station.NOAA.NDBC:LMDF1:1,2016-09-05T07:00:00Z,25.1760,-80.6330,1.5,24.01,1111122 
ENP,ioos.station.NOAA.NDBC:LMDF1:1,2016-09-05T08:00:00Z,25.1760,-80.6330,1.5,23.23,1111122 
ENP,ioos.station.NOAA.NDBC:LMDF1:1,2016-09-05T09:00:00Z,25.1760,-80.6330,1.5,21.59,1111122 
ENP,ioos.station.NOAA.NDBC:LMDF1:1,2016-09-05T10:00:00Z,25.1760,-80.6330,1.5,22.36,1111122 
ENP,ioos.station.NOAA.NDBC:LMDF1:1,2016-09-05T11:00:00Z,25.1760,-80.6330,1.5,22.74,1111122 
ENP,ioos.station.NOAA.NDBC:LMDF1:1,2016-09-05T12:00:00Z,25.1760,-80.6330,1.5,23.05,1111122 
ENP,ioos.station.NOAA.NDBC:LMDF1:1,2016-09-05T13:00:00Z,25.1760,-80.6330,1.5,23.39,1111122 
ENP,ioos.station.NOAA.NDBC:LMDF1:1,2016-09-05T14:00:00Z,25.1760,-80.6330,1.5,23.44,1111122 
ENP,ioos.station.NOAA.NDBC:LMDF1:1,2016-09-05T15:00:00Z,25.1760,-80.6330,1.5,23.8,1111122 
ENP,ioos.station.NOAA.NDBC:LMDF1:1,2016-09-05T16:00:00Z,25.1760,-80.6330,1.5,21.5,1111122 
ENP,ioos.station.NOAA.NDBC:LMDF1:1,2016-09-05T17:00:00Z,25.1760,-80.6330,1.5,19.64,1111122 
ENP,ioos.station.NOAA.NDBC:LMDF1:1,2016-09-05T18:00:00Z,25.1760,-80.6330,1.5,21.08,1111122 
ENP,ioos.station.NOAA.NDBC:LMDF1:1,2016-09-05T19:00:00Z,25.1760,-80.6330,1.5,21.68,1111122 
ENP,ioos.station.NOAA.NDBC:LMDF1:1,2016-09-05T20:00:00Z,25.1760,-80.6330,1.5,22.78,1111122 
ENP,ioos.station.NOAA.NDBC:LMDF1:1,2016-09-05T21:00:00Z,25.1760,-80.6330,1.5,23.18,1111122 
ENP,ioos.station.NOAA.NDBC:LMDF1:1,2016-09-05T22:00:00Z,25.1760,-80.6330,1.5,23.32,1111122 
ENP,ioos.station.NOAA.NDBC:LMDF1:1,2016-09-05T23:00:00Z,25.1760,-80.6330,1.5,23.27,1111122 
ENP,ioos.station.NOAA.NDBC:LMDF1:1,2016-09-06T00:00:00Z,25.1760,-80.6330,1.5,23.3,1111122 
ENP,ioos.station.NOAA.NDBC:LMDF1:1,2016-09-06T01:00:00Z,25.1760,-80.6330,1.5,23.34,1111122 
ENP,ioos.station.NOAA.NDBC:LMDF1:1,2016-09-06T02:00:00Z,25.1760,-80.6330,1.5,23.29,1111122 
ENP,ioos.station.NOAA.NDBC:LMDF1:1,2016-09-06T04:00:00Z,25.1760,-80.6330,1.5,23.48,1111122 
ENP,ioos.station.NOAA.NDBC:LMDF1:1,2016-09-06T05:00:00Z,25.1760,-80.6330,1.5,23.71,1111122 
ENP,ioos.station.NOAA.NDBC:LMDF1:1,2016-09-06T07:00:00Z,25.1760,-80.6330,1.5,20.45,1111122 
ENP,ioos.station.NOAA.NDBC:LMDF1:1,2016-09-06T08:00:00Z,25.1760,-80.6330,1.5,21.99,1111122 
ENP,ioos.station.NOAA.NDBC:LMDF1:1,2016-09-06T09:00:00Z,25.1760,-80.6330,1.5,22.79,1111122 
ENP,ioos.station.NOAA.NDBC:LMDF1:1,2016-09-06T10:00:00Z,25.1760,-80.6330,1.5,23.61,1111122 
ENP,ioos.station.NOAA.NDBC:LMDF1:1,2016-09-06T11:00:00Z,25.1760,-80.6330,1.5,21.36,1111122 
ENP,ioos.station.NOAA.NDBC:LMDF1:1,2016-09-06T12:00:00Z,25.1760,-80.6330,1.5,21.96,1111122 
ENP,ioos.station.NOAA.NDBC:LMDF1:1,2016-09-06T13:00:00Z,25.1760,-80.6330,1.5,23.23,1111122 
ENP,ioos.station.NOAA.NDBC:LMDF1:1,2016-09-06T14:00:00Z,25.1760,-80.6330,1.5,23.55,1111122 
ENP,ioos.station.NOAA.NDBC:LMDF1:1,2016-09-06T15:00:00Z,25.1760,-80.6330,1.5,23.95,1111122 
ENP,ioos.station.NOAA.NDBC:LMDF1:1,2016-09-06T16:00:00Z,25.1760,-80.6330,1.5,21.35,1111122 
ENP,ioos.station.NOAA.NDBC:LMDF1:1,2016-09-06T17:00:00Z,25.1760,-80.6330,1.5,16.69,1111122 
ENP,ioos.station.NOAA.NDBC:LMDF1:1,2016-09-06T18:00:00Z,25.1760,-80.6330,1.5,19.71,1111122 
ENP,ioos.station.NOAA.NDBC:LMDF1:1,2016-09-06T19:00:00Z,25.1760,-80.6330,1.5,20.52,1111122 
ENP,ioos.station.NOAA.NDBC:LMDF1:1,2016-09-06T20:00:00Z,25.1760,-80.6330,1.5,20.9,1111122 
ENP,ioos.station.NOAA.NDBC:LMDF1:1,2016-09-06T21:00:00Z,25.1760,-80.6330,1.5,21.23,1111122 
ENP,ioos.station.NOAA.NDBC:LMDF1:1,2016-09-06T22:00:00Z,25.1760,-80.6330,1.5,19.93,1111122 
ENP,ioos.station.NOAA.NDBC:LMDF1:1,2016-09-06T23:00:00Z,25.1760,-80.6330,1.5,21.25,1111122 
ENP,ioos.station.NOAA.NDBC:LMDF1:1,2016-09-07T00:00:00Z,25.1760,-80.6330,1.5,23.02,1111122 
ENP,ioos.station.NOAA.NDBC:LMDF1:1,2016-09-07T01:00:00Z,25.1760,-80.6330,1.5,23.48,1111122 
ENP,ioos.station.NOAA.NDBC:LMDF1:1,2016-09-07T02:00:00Z,25.1760,-80.6330,1.5,19.82,1111122 
ENP,ioos.station.NOAA.NDBC:LMDF1:1,2016-09-07T04:00:00Z,25.1760,-80.6330,1.5,20.68,1111122 
ENP,ioos.station.NOAA.NDBC:LMDF1:1,2016-09-07T05:00:00Z,25.1760,-80.6330,1.5,22.42,1111122 
ENP,ioos.station.NOAA.NDBC:LMDF1:1,2016-09-07T07:00:00Z,25.1760,-80.6330,1.5,21.56,1111122 
ENP,ioos.station.NOAA.NDBC:LMDF1:1,2016-09-07T08:00:00Z,25.1760,-80.6330,1.5,20.17,1111122 
ENP,ioos.station.NOAA.NDBC:LMDF1:1,2016-09-07T09:00:00Z,25.1760,-80.6330,1.5,21.43,1111122 
ENP,ioos.station.NOAA.NDBC:LMDF1:1,2016-09-07T10:00:00Z,25.1760,-80.6330,1.5,21.59,1111122 
ENP,ioos.station.NOAA.NDBC:LMDF1:1,2016-09-07T11:00:00Z,25.1760,-80.6330,1.5,21.57,1111122 
ENP,ioos.station.NOAA.NDBC:LMDF1:1,2016-09-07T12:00:00Z,25.1760,-80.6330,1.5,17.92,1111122 
ENP,ioos.station.NOAA.NDBC:LMDF1:1,2016-09-07T13:00:00Z,25.1760,-80.6330,1.5,20.44,1111122 
ENP,ioos.station.NOAA.NDBC:LMDF1:1,2016-09-07T14:00:00Z,25.1760,-80.6330,1.5,21.07,1111122 
ENP,ioos.station.NOAA.NDBC:LMDF1:1,2016-09-07T15:00:00Z,25.1760,-80.6330,1.5,21.46,1111122 
ENP,ioos.station.NOAA.NDBC:LMDF1:1,2016-09-07T16:00:00Z,25.1760,-80.6330,1.5,21.67,1111122 
ENP,ioos.station.NOAA.NDBC:LMDF1:1,2016-09-07T18:00:00Z,25.1760,-80.6330,1.5,21.89,1111122 
ENP,ioos.station.NOAA.NDBC:LMDF1:1,2016-09-07T19:00:00Z,25.1760,-80.6330,1.5,19.67,1111122 
ENP,ioos.station.NOAA.NDBC:LMDF1:1,2016-09-07T20:00:00Z,25.1760,-80.6330,1.5,20.64,1111122 
ENP,ioos.station.NOAA.NDBC:LMDF1:1,2016-09-07T21:00:00Z,25.1760,-80.6330,1.5,21.25,1111122 
ENP,ioos.station.NOAA.NDBC:LMDF1:1,2016-09-07T22:00:00Z,25.1760,-80.6330,1.5,21.44,1111122 
ENP,ioos.station.NOAA.NDBC:LMDF1:1,2016-09-07T23:00:00Z,25.1760,-80.6330,1.5,21.64,1111122 
ENP,ioos.station.NOAA.NDBC:LMDF1:1,2016-09-08T00:00:00Z,25.1760,-80.6330,1.5,21.24,1111122 
ENP,ioos.station.NOAA.NDBC:LMDF1:1,2016-09-08T01:00:00Z,25.1760,-80.6330,1.5,21.16,1111122 
ENP,ioos.station.NOAA.NDBC:LMDF1:1,2016-09-08T02:00:00Z,25.1760,-80.6330,1.5,21.27,1111122 
ENP,ioos.station.NOAA.NDBC:LMDF1:1,2016-09-08T04:00:00Z,25.1760,-80.6330,1.5,20.3,1111122 
ENP,ioos.station.NOAA.NDBC:LMDF1:1,2016-09-08T05:00:00Z,25.1760,-80.6330,1.5,20.97,1111122 
ENP,ioos.station.NOAA.NDBC:LMDF1:1,2016-09-08T07:00:00Z,25.1760,-80.6330,1.5,20.45,1111122 
ENP,ioos.station.NOAA.NDBC:LMDF1:1,2016-09-08T08:00:00Z,25.1760,-80.6330,1.5,20.98,1111122 
ENP,ioos.station.NOAA.NDBC:LMDF1:1,2016-09-08T09:00:00Z,25.1760,-80.6330,1.5,21.7,1111122 
ENP,ioos.station.NOAA.NDBC:LMDF1:1,2016-09-08T10:00:00Z,25.1760,-80.6330,1.5,21.38,1111122 
ENP,ioos.station.NOAA.NDBC:LMDF1:1,2016-09-08T11:00:00Z,25.1760,-80.6330,1.5,21.93,1111122 
ENP,ioos.station.NOAA.NDBC:LMDF1:1,2016-09-08T12:00:00Z,25.1760,-80.6330,1.5,22.32,1111122 
ENP,ioos.station.NOAA.NDBC:LMDF1:1,2016-09-08T13:00:00Z,25.1760,-80.6330,1.5,22.58,1111122 
ENP,ioos.station.NOAA.NDBC:LMDF1:1,2016-09-08T14:00:00Z,25.1760,-80.6330,1.5,22.84,1111122 
ENP,ioos.station.NOAA.NDBC:LMDF1:1,2016-09-08T15:00:00Z,25.1760,-80.6330,1.5,23.02,1111122 
ENP,ioos.station.NOAA.NDBC:LMDF1:1,2016-09-08T16:00:00Z,25.1760,-80.6330,1.5,20.56,1111122 
ENP,ioos.station.NOAA.NDBC:LMDF1:1,2016-09-08T17:00:00Z,25.1760,-80.6330,1.5,17.94,1111122 
ENP,ioos.station.NOAA.NDBC:LMDF1:1,2016-09-08T18:00:00Z,25.1760,-80.6330,1.5,16.61,1111122 
ENP,ioos.station.NOAA.NDBC:LMDF1:1,2016-09-08T19:00:00Z,25.1760,-80.6330,1.5,18.67,1111122 
ENP,ioos.station.NOAA.NDBC:LMDF1:1,2016-09-08T20:00:00Z,25.1760,-80.6330,1.5,19.69,1111122 
ENP,ioos.station.NOAA.NDBC:LMDF1:1,2016-09-08T21:00:00Z,25.1760,-80.6330,1.5,19.99,1111122 
ENP,ioos.station.NOAA.NDBC:LMDF1:1,2016-09-08T22:00:00Z,25.1760,-80.6330,1.5,17.9,1111122 
ENP,ioos.station.NOAA.NDBC:LMDF1:1,2016-09-08T23:00:00Z,25.1760,-80.6330,1.5,19.06,1111122 
ENP,ioos.station.NOAA.NDBC:LMDF1:1,2016-09-09T00:00:00Z,25.1760,-80.6330,1.5,18.75,1111122 
ENP,ioos.station.NOAA.NDBC:LMDF1:1,2016-09-09T01:00:00Z,25.1760,-80.6330,1.5,19.48,1111122 
ENP,ioos.station.NOAA.NDBC:LMDF1:1,2016-09-09T04:00:00Z,25.1760,-80.6330,1.5,18.89,1111122 
ENP,ioos.station.NOAA.NDBC:LMDF1:1,2016-09-09T05:00:00Z,25.1760,-80.6330,1.5,20.35,1111122 
ENP,ioos.station.NOAA.NDBC:LMDF1:1,2016-09-09T07:00:00Z,25.1760,-80.6330,1.5,18.64,1111122 
ENP,ioos.station.NOAA.NDBC:LMDF1:1,2016-09-09T08:00:00Z,25.1760,-80.6330,1.5,20.23,1111122 
ENP,ioos.station.NOAA.NDBC:LMDF1:1,2016-09-09T09:00:00Z,25.1760,-80.6330,1.5,21.14,1111122 
ENP,ioos.station.NOAA.NDBC:LMDF1:1,2016-09-09T10:00:00Z,25.1760,-80.6330,1.5,21.61,1111122 
ENP,ioos.station.NOAA.NDBC:LMDF1:1,2016-09-09T11:00:00Z,25.1760,-80.6330,1.5,21.95,1111122 
ENP,ioos.station.NOAA.NDBC:LMDF1:1,2016-09-09T12:00:00Z,25.1760,-80.6330,1.5,22.26,1111122 
ENP,ioos.station.NOAA.NDBC:LMDF1:1,2016-09-09T13:00:00Z,25.1760,-80.6330,1.5,22.52,1111122 
ENP,ioos.station.NOAA.NDBC:LMDF1:1,2016-09-09T14:00:00Z,25.1760,-80.6330,1.5,19.88,1111122 
ENP,ioos.station.NOAA.NDBC:LMDF1:1,2016-09-09T15:00:00Z,25.1760,-80.6330,1.5,21.14,1111122 
ENP,ioos.station.NOAA.NDBC:LMDF1:1,2016-09-09T16:00:00Z,25.1760,-80.6330,1.5,20.17,1111122 
ENP,ioos.station.NOAA.NDBC:LMDF1:1,2016-09-09T17:00:00Z,25.1760,-80.6330,1.5,21.44,1111122 
ENP,ioos.station.NOAA.NDBC:LMDF1:1,2016-09-09T18:00:00Z,25.1760,-80.6330,1.5,21.26,1111122 
ENP,ioos.station.NOAA.NDBC:LMDF1:1,2016-09-09T19:00:00Z,25.1760,-80.6330,1.5,21.41,1111122 
ENP,ioos.station.NOAA.NDBC:LMDF1:1,2016-09-09T20:00:00Z,25.1760,-80.6330,1.5,21.68,1111122 
ENP,ioos.station.NOAA.NDBC:LMDF1:1,2016-09-09T21:00:00Z,25.1760,-80.6330,1.5,17.23,1111122 
ENP,ioos.station.NOAA.NDBC:LMDF1:1,2016-09-09T22:00:00Z,25.1760,-80.6330,1.5,17.29,1111122 
ENP,ioos.station.NOAA.NDBC:LMDF1:1,2016-09-09T23:00:00Z,25.1760,-80.6330,1.5,19.37,1111122 
ENP,ioos.station.NOAA.NDBC:LMDF1:1,2016-09-10T00:00:00Z,25.1760,-80.6330,1.5,18.17,1111122 
ENP,ioos.station.NOAA.NDBC:LMDF1:1,2016-09-10T01:00:00Z,25.1760,-80.6330,1.5,20.12,1111122 
ENP,ioos.station.NOAA.NDBC:LMDF1:1,2016-09-10T04:00:00Z,25.1760,-80.6330,1.5,21.01,1111122 
ENP,ioos.station.NOAA.NDBC:LMDF1:1,2016-09-10T07:00:00Z,25.1760,-80.6330,1.5,18.7,1111122 
ENP,ioos.station.NOAA.NDBC:LMDF1:1,2016-09-10T08:00:00Z,25.1760,-80.6330,1.5,19.53,1111122 
ENP,ioos.station.NOAA.NDBC:LMDF1:1,2016-09-10T09:00:00Z,25.1760,-80.6330,1.5,18.48,1111122 
ENP,ioos.station.NOAA.NDBC:LMDF1:1,2016-09-10T11:00:00Z,25.1760,-80.6330,1.5,18.81,1111122 
ENP,ioos.station.NOAA.NDBC:LMDF1:1,2016-09-10T12:00:00Z,25.1760,-80.6330,1.5,15.29,1111122 
ENP,ioos.station.NOAA.NDBC:LMDF1:1,2016-09-10T13:00:00Z,25.1760,-80.6330,1.5,17.02,1111122 
ENP,ioos.station.NOAA.NDBC:LMDF1:1,2016-09-10T14:00:00Z,25.1760,-80.6330,1.5,18.18,1111122 
ENP,ioos.station.NOAA.NDBC:LMDF1:1,2016-09-10T15:00:00Z,25.1760,-80.6330,1.5,19.23,1111122 
ENP,ioos.station.NOAA.NDBC:LMDF1:1,2016-09-10T16:00:00Z,25.1760,-80.6330,1.5,19.97,1111122 
ENP,ioos.station.NOAA.NDBC:LMDF1:1,2016-09-10T17:00:00Z,25.1760,-80.6330,1.5,18.59,1111122 
ENP,ioos.station.NOAA.NDBC:LMDF1:1,2016-09-10T18:00:00Z,25.1760,-80.6330,1.5,18.06,1111122 
ENP,ioos.station.NOAA.NDBC:LMDF1:1,2016-09-10T19:00:00Z,25.1760,-80.6330,1.5,18.64,1111122 
ENP,ioos.station.NOAA.NDBC:LMDF1:1,2016-09-10T20:00:00Z,25.1760,-80.6330,1.5,18.6,1111122 
ENP,ioos.station.NOAA.NDBC:LMDF1:1,2016-09-10T21:00:00Z,25.1760,-80.6330,1.5,18.17,1111122 
ENP,ioos.station.NOAA.NDBC:LMDF1:1,2016-09-10T22:00:00Z,25.1760,-80.6330,1.5,18.08,1111122 
ENP,ioos.station.NOAA.NDBC:LMDF1:1,2016-09-10T23:00:00Z,25.1760,-80.6330,1.5,18.81,1111122 
ENP,ioos.station.NOAA.NDBC:LMDF1:1,2016-09-11T00:00:00Z,25.1760,-80.6330,1.5,19.04,1111122 
ENP,ioos.station.NOAA.NDBC:LMDF1:1,2016-09-11T01:00:00Z,25.1760,-80.6330,1.5,16.94,1111122 
ENP,ioos.station.NOAA.NDBC:LMDF1:1,2016-09-11T04:00:00Z,25.1760,-80.6330,1.5,18.83,1111122 
ENP,ioos.station.NOAA.NDBC:LMDF1:1,2016-09-11T05:00:00Z,25.1760,-80.6330,1.5,14.79,1111122 
ENP,ioos.station.NOAA.NDBC:LMDF1:1,2016-09-11T07:00:00Z,25.1760,-80.6330,1.5,17.92,1111122 
ENP,ioos.station.NOAA.NDBC:LMDF1:1,2016-09-11T08:00:00Z,25.1760,-80.6330,1.5,17.15,1111122 
ENP,ioos.station.NOAA.NDBC:LMDF1:1,2016-09-11T09:00:00Z,25.1760,-80.6330,1.5,17.31,1111122 
ENP,ioos.station.NOAA.NDBC:LMDF1:1,2016-09-11T10:00:00Z,25.1760,-80.6330,1.5,15.95,1111122 
ENP,ioos.station.NOAA.NDBC:LMDF1:1,2016-09-11T12:00:00Z,25.1760,-80.6330,1.5,17.82,1111122 
ENP,ioos.station.NOAA.NDBC:LMDF1:1,2016-09-11T13:00:00Z,25.1760,-80.6330,1.5,17.58,1111122 
ENP,ioos.station.NOAA.NDBC:LMDF1:1,2016-09-11T14:00:00Z,25.1760,-80.6330,1.5,17.99,1111122 
ENP,ioos.station.NOAA.NDBC:LMDF1:1,2016-09-11T15:00:00Z,25.1760,-80.6330,1.5,18.51,1111122 
ENP,ioos.station.NOAA.NDBC:LMDF1:1,2016-09-11T16:00:00Z,25.1760,-80.6330,1.5,16.88,1111122 
ENP,ioos.station.NOAA.NDBC:LMDF1:1,2016-09-11T17:00:00Z,25.1760,-80.6330,1.5,17.1,1111122 
ENP,ioos.station.NOAA.NDBC:LMDF1:1,2016-09-11T18:00:00Z,25.1760,-80.6330,1.5,17.71,1111122 
ENP,ioos.station.NOAA.NDBC:LMDF1:1,2016-09-11T19:00:00Z,25.1760,-80.6330,1.5,18.44,1111122 
ENP,ioos.station.NOAA.NDBC:LMDF1:1,2016-09-11T20:00:00Z,25.1760,-80.6330,1.5,18.64,1111122 
ENP,ioos.station.NOAA.NDBC:LMDF1:1,2016-09-11T21:00:00Z,25.1760,-80.6330,1.5,18.9,1111122 
ENP,ioos.station.NOAA.NDBC:LMDF1:1,2016-09-11T22:00:00Z,25.1760,-80.6330,1.5,19.13,1111122 
ENP,ioos.station.NOAA.NDBC:LMDF1:1,2016-09-11T23:00:00Z,25.1760,-80.6330,1.5,19.37,1111122 
ENP,ioos.station.NOAA.NDBC:LMDF1:1,2016-09-12T00:00:00Z,25.1760,-80.6330,1.5,19.43,1111122 
ENP,ioos.station.NOAA.NDBC:LMDF1:1,2016-09-12T01:00:00Z,25.1760,-80.6330,1.5,19.6,1111122 
ENP,ioos.station.NOAA.NDBC:LMDF1:1,2016-09-12T02:00:00Z,25.1760,-80.6330,1.5,19.49,1111122 
ENP,ioos.station.NOAA.NDBC:LMDF1:1,2016-09-12T04:00:00Z,25.1760,-80.6330,1.5,16.69,1111122 
ENP,ioos.station.NOAA.NDBC:LMDF1:1,2016-09-12T06:00:00Z,25.1760,-80.6330,1.5,18.18,1111122 
ENP,ioos.station.NOAA.NDBC:LMDF1:1,2016-09-12T07:00:00Z,25.1760,-80.6330,1.5,18.7,1111122 
ENP,ioos.station.NOAA.NDBC:LMDF1:1,2016-09-12T08:00:00Z,25.1760,-80.6330,1.5,18.85,1111122 
ENP,ioos.station.NOAA.NDBC:LMDF1:1,2016-09-12T09:00:00Z,25.1760,-80.6330,1.5,19.15,1111122 
ENP,ioos.station.NOAA.NDBC:LMDF1:1,2016-09-12T11:00:00Z,25.1760,-80.6330,1.5,19.56,1111122 
ENP,ioos.station.NOAA.NDBC:LMDF1:1,2016-09-12T12:00:00Z,25.1760,-80.6330,1.5,19.71,1111122 
ENP,ioos.station.NOAA.NDBC:LMDF1:1,2016-09-12T13:00:00Z,25.1760,-80.6330,1.5,19.81,1111122 
ENP,ioos.station.NOAA.NDBC:LMDF1:1,2016-09-12T14:00:00Z,25.1760,-80.6330,1.5,19.95,1111122 
ENP,ioos.station.NOAA.NDBC:LMDF1:1,2016-09-12T15:00:00Z,25.1760,-80.6330,1.5,20.03,1111122 
ENP,ioos.station.NOAA.NDBC:LMDF1:1,2016-09-12T16:00:00Z,25.1760,-80.6330,1.5,20.1,1111122 
ENP,ioos.station.NOAA.NDBC:LMDF1:1,2016-09-12T17:00:00Z,25.1760,-80.6330,1.5,20.18,1111122 
ENP,ioos.station.NOAA.NDBC:LMDF1:1,2016-09-12T18:00:00Z,25.1760,-80.6330,1.5,20.34,1111122 
ENP,ioos.station.NOAA.NDBC:LMDF1:1,2016-09-12T19:00:00Z,25.1760,-80.6330,1.5,20.0,1111122 
ENP,ioos.station.NOAA.NDBC:LMDF1:1,2016-09-12T20:00:00Z,25.1760,-80.6330,1.5,19.66,1111122 
ENP,ioos.station.NOAA.NDBC:LMDF1:1,2016-09-12T21:00:00Z,25.1760,-80.6330,1.5,18.73,1111122 
ENP,ioos.station.NOAA.NDBC:LMDF1:1,2016-09-12T22:00:00Z,25.1760,-80.6330,1.5,15.57,1111122 
ENP,ioos.station.NOAA.NDBC:LMDF1:1,2016-09-12T23:00:00Z,25.1760,-80.6330,1.5,17.82,1111122 
ENP,ioos.station.NOAA.NDBC:LMDF1:1,2016-09-13T00:00:00Z,25.1760,-80.6330,1.5,18.54,1111122 
ENP,ioos.station.NOAA.NDBC:LMDF1:1,2016-09-13T01:00:00Z,25.1760,-80.6330,1.5,18.93,1111122 
ENP,ioos.station.NOAA.NDBC:LMDF1:1,2016-09-13T02:00:00Z,25.1760,-80.6330,1.5,19.16,1111122 
ENP,ioos.station.NOAA.NDBC:LMDF1:1,2016-09-13T04:00:00Z,25.1760,-80.6330,1.5,18.28,1111122 
ENP,ioos.station.NOAA.NDBC:LMDF1:1,2016-09-13T05:00:00Z,25.1760,-80.6330,1.5,18.42,1111122 
ENP,ioos.station.NOAA.NDBC:LMDF1:1,2016-09-13T07:00:00Z,25.1760,-80.6330,1.5,17.48,1111122 
ENP,ioos.station.NOAA.NDBC:LMDF1:1,2016-09-13T08:00:00Z,25.1760,-80.6330,1.5,17.1,1111122 
ENP,ioos.station.NOAA.NDBC:LMDF1:1,2016-09-13T09:00:00Z,25.1760,-80.6330,1.5,17.22,1111122 
ENP,ioos.station.NOAA.NDBC:LMDF1:1,2016-09-13T10:00:00Z,25.1760,-80.6330,1.5,16.99,1111122 
ENP,ioos.station.NOAA.NDBC:LMDF1:1,2016-09-13T11:00:00Z,25.1760,-80.6330,1.5,16.75,1111122 
ENP,ioos.station.NOAA.NDBC:LMDF1:1,2016-09-13T12:00:00Z,25.1760,-80.6330,1.5,16.73,1111122 
ENP,ioos.station.NOAA.NDBC:LMDF1:1,2016-09-13T13:00:00Z,25.1760,-80.6330,1.5,16.57,1111122 
ENP,ioos.station.NOAA.NDBC:LMDF1:1,2016-09-13T14:00:00Z,25.1760,-80.6330,1.5,16.55,1111122 
ENP,ioos.station.NOAA.NDBC:LMDF1:1,2016-09-13T15:00:00Z,25.1760,-80.6330,1.5,16.53,1111122 
ENP,ioos.station.NOAA.NDBC:LMDF1:1,2016-09-13T16:00:00Z,25.1760,-80.6330,1.5,16.45,1111122 
ENP,ioos.station.NOAA.NDBC:LMDF1:1,2016-09-13T17:00:00Z,25.1760,-80.6330,1.5,17.04,1111122 
ENP,ioos.station.NOAA.NDBC:LMDF1:1,2016-09-13T18:00:00Z,25.1760,-80.6330,1.5,16.62,1111122 
ENP,ioos.station.NOAA.NDBC:LMDF1:1,2016-09-13T19:00:00Z,25.1760,-80.6330,1.5,16.49,1111122 
ENP,ioos.station.NOAA.NDBC:LMDF1:1,2016-09-13T20:00:00Z,25.1760,-80.6330,1.5,16.5,1111122 
ENP,ioos.station.NOAA.NDBC:LMDF1:1,2016-09-13T21:00:00Z,25.1760,-80.6330,1.5,16.62,1111122 
ENP,ioos.station.NOAA.NDBC:LMDF1:1,2016-09-13T22:00:00Z,25.1760,-80.6330,1.5,17.16,1111122 
ENP,ioos.station.NOAA.NDBC:LMDF1:1,2016-09-13T23:00:00Z,25.1760,-80.6330,1.5,15.98,1111122 
ENP,ioos.station.NOAA.NDBC:LMDF1:1,2016-09-14T00:00:00Z,25.1760,-80.6330,1.5,17.36,1111122 
ENP,ioos.station.NOAA.NDBC:LMDF1:1,2016-09-14T01:00:00Z,25.1760,-80.6330,1.5,16.48,1111122 
ENP,ioos.station.NOAA.NDBC:LMDF1:1,2016-09-14T02:00:00Z,25.1760,-80.6330,1.5,17.05,1111122 
ENP,ioos.station.NOAA.NDBC:LMDF1:1,2016-09-14T04:00:00Z,25.1760,-80.6330,1.5,17.25,1111122 